Voltar ao catálogo

COSMOS 886 DEB

AtivoLEO
NORAD 9724·DEBRIS·🇷🇺 Russia

Lançado Dec 27, 1976 de Baikonur Cosmodrome

Loading…

Próximas Passagens (próximas 24 horas)

TLE

AtualizadoSource: Space-Track

Época: Sep 14, 2026, 00:52 UTC

1 09724U 76126V   26257.03672960  .00000600  00000-0  29607-3 0  9992
2 09724  65.8186 276.7648 0762795 121.6719 246.1026 13.27504349349387

Acompanhe COSMOS 886 DEB em tempo real com AllMySat

Download on the App Store